Weather in Leshukonskoe

Russia / Arkhangel'skaya Oblast'     64°53′53″N   45°45′33″E
temp.,
°C
wind,
m/s
gust,
m/s
humid.,
%
clouds,
%
prec.,
mm/h
press.,
hPa
HPBL,
m
23 april, fri
fri2300:00+2sw3996100 1.0 1009380
03:00+2sw4889100 1.4 1011679
06:00+2sw4979100 0.0 1013960
09:00+4sw477381 0.0 1015758
12:00+7sw4760100 0.0 10161394
15:00+10sw365296 0.0 10171531
18:00+9ese246655 0.0 1017138
21:00+6e3108284 0.0 1017191
24 april, sat
sat2400:00+7se31180100 0.0 1016295
03:00+7se41282100 0.0 1016337
06:00+8sse4128497 0.1 1016493
09:00+12sse5116188 0.1 1016721
12:00+15sse584299 0.0 10152233
15:00+16se4836100 0.0 10142444
18:00+14sse594427 0.0 10141277
21:00+9se411595 0.0 1014444
25 april, sun
sun2500:00+7ese310696 0.0 1014320
03:00+5e31077100 0.0 1012238
06:00+7ese41073100 0.0 1011608
09:00+8ese4970100 0.0 10091110
12:00+10ese4861100 0.1 10081292
15:00+8ese4776100 0.4 10071082
18:00+6ese3790100 0.6 10061001
21:00+6ene2685100 0.8 1005401
26 april, mon
mon2600:00+6ene3885100 0.0 1003372
03:00+5ene2589100 0.0 1002640
06:00+5ene259297 1.1 1001498
09:00+6ene3475100 1.3 1000803
12:00+8ne346694 0.1 10001171
15:00+6ese2482100 0.6 1000801
18:00+5e2493100 0.4 1000732
21:00+4se2394100 0.9 1000669
27 april, tue
tue2700:00+2wsw119289 0.1 1001139
03:00+1wsw119458 0.1 100139
06:00+2ssw128991 0.0 1001229
09:00+3nw2294100 0.2 1002491
12:00+1nnw3697100 0.9 1003337
15:00+1n4791100 1.4 1004626
18:000n4889100 0.4 1005710
21:00−2n488891 0.6 1007713